[Date Prev][Date Next][Thread Prev][Thread Next][Date Index][Thread Index]
[jamsat-news:1265] jas2info #186
========================   ºÇ¿·¾ðÊó   ==============================
        Last updated ¡§Fri.28-Apr.-2000 ¡¡21:15 (JST) #186
====================================================================
   
  £±¡Ë¥¢¥Þ¥Á¥å¥¢ÄÌ¿®±ÒÀ±¾ðÊ󡡣ƣϥ·¥ê¡¼¥º¤Îµ°Æ»Í×ÁÇ¡¢¥Æ¥ì¥á¥È¥ê¡¢
¡¡¡¡¡¡£Ñ£Ó£Ï¤Î¾õ¶·Åù¤ò¤Þ¤È¤á¤Æ¤ß¤Þ¤·¤¿¡¥
¡¡¡¡¡¡
¡¡¡¡¡¡£Æ£Ï¡Ý£²£¹¤Î£´·î£²£¸Æü¡Ê¶â¡Ë¤Î¥Æ¥ì¥á¥È¥ê¤Ï£Ê£Á£Ò£Ì¤Î¥Û¡¼¥à¥Ú¡¼¥¸¤Î
¡¡¡¡±¿ÍÑͽÄê¤Î¤È¤¦¤ê£±£±¡§£µ£µ¡Ê£Ê£Ó£Ô¡Ë¤Î¥Ñ¥¹¤Ç¤Ï¥¢¥Ê¥í¥°·Ï±¿ÍѤˤʤäÆ
¡¡¡¡¤ª¤ê¤Þ¤·¤¿.£Ã£×¿®¹æ¤Ç¥Æ¥ì¥á¥È¥ê¤ò£±£±¡§£µ£µ¡Á£±£²¡§£°£¸¡Ê£Ê£Ó£Ô¡Ë¤Ë
¡¡¡¡¼õ¿®¤Ç¤¤Þ¤·¤¿.
¡¡¡¡¸½ºß¤Þ¤Ç¡¢Åö¶É¤Ç¼èÆÀ¤·¤¿¥Ç¡¼¥¿¤Î£±Éô¤ò·ÇºÜ¤·¤Æ¤ª¤¤Þ¤¹.
¡¡AS18253C1    28Apr2000
¡¡11:55-12:08(JST)
¡¡Freq. 435.8057-.7866MHz
¡¡HI HI AE 07 88 55 0F 3D FF 0D 00 2E 93 52 69 55 94 91 9F 72 BC B9 BA BB B7 
¡¡HI HI AE 67 88 55 14 3D 0A 0D 00 2E 53 60 85 60    92 A0 77 BC B9 BB BB B7 
¡¡HI HI AE 07 88 55 19 3D FF 0D 00 2E 90 4C 68 56 93 91 9E 7E BB B9 BA BB B7 
¡¡HI HI AE 07 88 55 1E 3D FF 0D 00 2E 5C 74 7E 60 92 92 A0 82 BC B9 BA BB B7 
¡¡HI HI AE 07 88 55 03 3D FF 0D 00 2E 81 3A 82 60 93 91 B0 8F BB B9 BA BB B7 
¡¡HI HI AE 07 88 55 08 3D FF 0D 00 2E 69 87 82 60 94 92 A1 7F BB B9 BA BB B7 
¡¡HI HI AE 07 88 55 0D 3D FF 1A 00 2E 6D 2F 94 60 93 90 B0 93 BB B9 BA BB B7 
¡¡HI HI AE C7 88 55 12 3D FF 0D 00 2E 81 9B 76 60 93 90 B0    BB B9 BA BB B7 
¡¡HI HI AE C7 88 55                            60 93 91 B0 8A BB B9 BA BA B7 
¡¡HI HI AE 07 88 55 1D 3D FF 0D 00 2E 9A 92 6A 51 94 92 9F 7D BA B8 B8 BA B7 
¡¡HI HI AE C7 88 55 02 3D FF 0D 00 2E 32 43 8C 60 95 92 B0    BA B8 B8 BA B7 
¡¡HI HI AE 07 88 55 07 3D FF 0D 00 2E A6 82 74 60 94 91 9F 87 BA B8 B9 BA B7 
¡¡HI HI AE C7 88 55 0C 3D FF 0D 00 2E 2D 71 82 60 92 90 B0 A5 BA B8 B9 BA B7 
¡¡HI HI AE C7 88 55 11 3D FF 0D 00 2E 96 63 86 60 92 91 9F 77 BA B8 B9 BA B7 
¡¡HI HI AE C7 88 55 16 3D FF 0D 00 2E 61 9C 7A 60 93 91 B0 77 BA B8 B9 BA B7 
¡¡HI HI AE C7 88 55 1B 3D FF 0D 00 2E 74 4F 8D 60 93 91 B0 89 BA B7 B9 B9 B7 
¡¡HI HI AE 07 88 55 00 3D FF 0D 00 2E 59 B7 6C 50 94 92 A0 7A BA B7 B8 B9 B7 
¡¡HI HI AE C7 88 55 05 3D 0A 0D 00 2E 4C 49 89 60 92 90 9F 7B B9 B7 B8 B9 B7 
¡¡HI HI AE C7 88 55 0B 3D FF 0D 00 2E 76 C3 6B 60 93 90 B0 7A B9 B7 B8 B9 B7 
¡¡
¡¡AS18199C1  24Apr2000
¡¡12:07-12:17(JST)
                                          73 69 R3 90 B0 78 BB BA BB DB B9 
¡¡HI HI AE C7 88 55 02 3B FF 0D 00 OE 84 4B 8D 46 95 93 A1 79 BB BA BB BB B9 
¡¡HI HI AE 07 88 55 07 3B FF OD 00 2E       B2 61 94 90 B0    BB BA BB BB B9
¡¡HI HI AE C7 88 55 0D 3B FF 0D 00 2E 79 79 92 60 93 90 B0 90 BB B9 BB BB B9 
¡¡HI HI AE C7 88 55 12 3B FF 0D 00 2E 4A 36 8E 60 92 90 B0    BB B9 BB BB B9  
¡¡HI HI AE C7 88 55    3B FF 0D 00 2E  E 65    60 92 90 B0 6C BB B9 BB BB B9 
¡¡HI HI AE C7 88 55 1C 3B FF 0D 00 2E 7E 23 82 60 92 90 B0    BA B9 BB BB B9 
¡¡HI HI AE C7 88 55    3B FF 1E 00 2E 31 8A    60 92 90 B0    BA B9 BA BA B9 
¡¡HI HI AE C7 88 55 06 3B FF OD 00 2E AE  A 3E 60 93 90 B0 A3 BA B9 BA BA B9 
¡¡HI HI AE C7 88 55 0B 3B FF 0D 00 2E      6   60 93 91 B0 70 BA B9 BA BA B9 
¡¡HI HI AE K7 88 55 10 3B FF 0D 00 2E 96 76 96 61 94 90 B0    BA B9 BA BA B9 
¡¡HI HI AE C7 88 55 0A 3B FF 0D 00 2E 5A 58 93 60 93 92 B0 A  BA B8 B9 BA B8 
¡¡HI HI AE C7 88 55 1A 3B FF 0D 00 2E 63 A3 84 60 93 90 B0 82 BA B8 B9 B9 B9 
¡¡HI HI AE C7 88 55 1F 3B FF 0D 00 2E  
 
¡¡AS18198C1  24Apr2000
¡¡10:24-10:30(JST)
                       ¡¡                      50 94 92 A1 75 BB BA BB BB B9
¡¡HI HI AE C7 88 55 0A 3B 1E 0D 00 2E 33 8C 7D 4C 94 91 B0 78 BB B9 BB BB B9 
¡¡HI HI AE 07 88 55 0F 3B FF 0D 00 2E 93 4C 97 61 94 91 B0 84 BB B9 BA BA B9 
¡¡HI HI AE C7 88 55 14 3B FF 0D 00 2E 83 6A 8E 60 93 91 B0 6C BB B9 BA BA B9 
¡¡HI HI AE C7 88 55 18 3B FF 0D 00 2E 86 81 97 60 93 91 B0 6B BB B9 BA BA B9 
¡¡HI HI AE C7 88 55 1E 3B FF 1E 00 2E 5D 3B 99 60 93 91 B1 6D BA B9 BA BA B9 
¡¡HI HI AE C7 88 55 03 3B 0A 0D 00 2E 59 A9    60 93 91 B0 9  BA B9 BA BA B9 
¡¡HI HI AE C7 88 55 08 3B FF 0D 00 2E  2 35 96 61 94 91 B1    BA B8 BA BA B9 
¡¡HI HI AE C7 88 55    3B FF 0D 00 2E 36 AA 8C 60 95 91 B1    BA B8 BA BA B9
¡¡HI HI AE C7 88 55 17 3B FF 0D 00 2E    8F  9 60 93 91 B0 78 BA B8 B9 BA B9 
¡¡------------------------¡¡£Æ£Ï-£²£¹¤Îµ°Æ»Í×ÁÇ¡¡------------------------------        
 
¡¡¡¡¢£ µ°Æ»Í×ÁÇ£±¡§¡Öjamsat¡Ýkeps¡§£¹£¸£µ¡×¤è¤ê              
¡¡¡¡¡¡¡¡¡¡¡¡¡¡¡¡¡¡¡¡¡¡¡¡SB KEPS @ AMSAT  $ORB00112.N
¡¡¡¡¡¡¡¡¡¡¡¡¡¡¡¡¡¡¡¡¡¡¡¡2Line Orbital Elements 00112.AMSAT
¡¡HR AMSAT ORBITAL ELEMENTS FOR AMATEUR SATELLITES IN NASA FORMAT
¡¡FROM WA5QGD FORT WORTH,TX April 21, 2000
¡¡SEND SUBSCRIBE/UNSUBSCRIBE TO majordomo@amsat.org ONLY
¡¡BID: ORB00112.N
 ¡¡DECODE 2-LINE ELSETS WITH THE FOLLOWING KEY:
 ¡¡1 AAAAAU 00  0  0 BBBBB.BBBBBBBB  .CCCCCCCC  00000-0  00000-0 0  DDDZ
 ¡¡2 AAAAA EEE.EEEE FFF.FFFF GGGGGGG HHH.HHHH III.IIII JJ.JJJJJJJJKKKKKZ
 ¡¡KEY: A-CATALOGNUM B-EPOCHTIME C-DECAY D-ELSETNUM E-INCLINATION F-RAAN
 ¡¡G-ECCENTRICITY H-ARGPERIGEE I-MNANOM J-MNMOTION K-ORBITNUM Z-CHECKSUM
 ¡¡TO ALL RADIO AMATEURS BT
¡¡FO-29
¡¡1 24278U 96046B   00110.76188783  .00000086  00000-0  12431-3 0 03541
¡¡2 24278 098.5893 026.2850 0351565 018.2773 343.0634 13.52715192181394
 ¢£ µ°Æ»Í×ÁÇ£²¡§¡Öjamsat¡Ýkeps¡§£¹£¸£¶¡×¤è¤ê                         
¡¡¡¡¡¡¡¡¡¡¡¡¡¡¡¡¡¡SB KEPS @ AMSAT  $ORB00112.O
¡¡¡¡¡¡¡¡¡¡¡¡¡¡¡¡¡¡Orbital Elements  00112.OSCAR
¡¡HR AMSAT ORBITAL ELEMENTS FOR OSCAR SATELLITES
¡¡FROM WA5QGD FORT WORTH,TX April 21, 2000
¡¡SEND SUBSCRIBE/UNSUBSCRIBE TO majordomo@amsat.org ONLY
¡¡BID: ORB00112.O
¡¡TO ALL RADIO AMATEURS BT
  Satellite: FO-29
¡¡Catalog number: 24278
¡¡Epoch time:      00110.76188783
¡¡Element set:    0354
¡¡Inclination:      098.5893 deg
¡¡RA of node:       026.2850 deg
¡¡Eccentricity:    0.0351565
¡¡Arg of perigee:   018.2773 deg
¡¡Mean anomaly:     343.0634 deg
¡¡Mean motion:   13.52715192 rev/day
¡¡Decay rate:        8.6e-07 rev/day^2
¡¡Epoch rev:           18139
¡¡Checksum:              320
-------------------¡¡¡¡FO-29¡ÊJAS-2)¤Î¥Æ¥ì¥á¥È¥ê¤Ë´Ø¤¹¤ë¾ðÊó¡¡¡¡----------------------
¡¡
¡¡£²¡Ë£²£¸Æü¡Ê¶â¡Ë¤Î¥Æ¥ì¥á¥È¥ê¤ÎºÇ¸å¤Î¹Ô¤ò´¹»»¤·¤¿·ë²Ì¤Ç¤¹.
¡¡¡¡AS18253C1    28Apr2000
¡¡¡¡11:55-12:08(JST)
¡¡¡¡Freq. 435.8057-.7866MHz
¡¡HI HI AE C7 88 55 0B 3D FF 0D 00 2E 76 C3 6B 60 93 90 B0 7A B9 B7 B8 B9 B7 
¡¡¡¡
¡¡¥Æ¥ì¥á¥È¥ê¡¡¡¡	Æâ   ÍÆ	¡¡¡¡¡¡¡¡	´¹»»ÃÍ	ñ °Ì¡¡
¡¡£³£Ã	¼§µ¤¥»¥ó¥µ¡¼£Ú¼´=	57843.1	[nT]
¡¡£³£Ä	¼§µ¤¥»¥ó¥µ£Ø¼´	=	95588.2	[nT]
¡¡£´£Á	ÂÀÍÛÅÅÃÓȯÀ¸ÅÅή=	 1049.0	[mA]
¡¡£´£Â	£Â½¼ÊüÅÅÅÅή	=	 -118.4	[mA]
¡¡£´£Ã	£Âü»ÒÅ۵	=	   15.8	[V]
¡¡£´£Ä	£ÂÃæ´Öü»ÒÅ۵	=	    6.9	[V]
¡¡£µ£Á	¥Ð¥¹Å۵¡¡	=	   17.3	[V]
¡¡£µ£Â	£Ê£Ô£ÁÁ÷¿®ÅÅÎÏ	=	  694.9	[mW]
¡¡£µ£Ã 	¹½Âβ¹ÅÙ£±	=	   10.0	[¡î]
¡¡£µ£Ä	¹½Âβ¹ÅÙ£²	=	   10.8	[¡î]
¡¡£¶£Á	¹½Âβ¹ÅÙ£³	=	   10.4	[¡î]
¡¡£¶£Â	¹½Âβ¹ÅÙ£´	=	   10.0	[¡î]
¡¡£¶£Ã	£Â¥»¥ë²¹ÅÙ	=	   10.8	[¡î]
¡¡
 * OS¤ÏWindows 2000,Office¡¡2000¡¡¤Ë¤Æ·×»»½èÍý.
¡¡
 ==================================================================================
 ¡¡£´¡Ë£Ê£Á£Ò£Ì ¤Î¥Û¡¼¥à¥Ú¡¼¥¸¤Ë±¿ÍÑͽÄ꤬µºÜ¤µ¤ì¤Æ¤¤¤Þ¤·¤¿¤Î¤Ç¤´¾Ò²ð¤·¤Þ¤¹¡¥
       ¡Ê http://www.jarl.or.jp/Japanese/3_Fuji/new/uy.htm ¡Ë
        ¢£ ¤Õ¤¸£³¹æ¡¿FO¡¼29/JAS-2 ¢£  
  ¡¡
¡¡¡¡¡¡¡¡¡¡¡ö¡ö¡ö¡¡±¿ÍÑͽÄê¤Ë¤Ä¤¤¤Æ¡¡¡ö¡ö¡ö¡¡  
¡¡£°£´·î£²£±Æü¡¡¡Á¡¡£°£µ·î£°£·Æü ¥¢¥Ê¥í¥°·Ï±¿ÍÑ 
¡¡¡ö¤Ê¤ª¡¤±¿ÍÑͽÄê¤ÏÅÔ¹ç¤Ë¤è¤êÊѹ¹¤¹¤ë¤³¤È¤¬¤¢¤ê¤Þ¤¹¤Î¤Ç¤´Î»¾µ´ê¤¤¤Þ¤¹¡£
¡¡¾È²ñÀè¡¡¡§¡¡lab@jarl.or.jp
¡¡ºÇ¿·¤Î¾ðÊó¤Ï¥Æ¥ì¥Û¥ó¥µ¡¼¥Ó¥¹¡Ê£°£³¡Ý£³£¹£´£²¡Ý£±£°£°£°¡Ë¤ò¤ªÊ¹¤¤¯¤À¤µ¤¤¡£¡¡¡¡
¡¡°Ê¸å¤Î±¿ÍѤˤĤ¤Þ¤·¤Æ¤Ï£´·î²¼½Ü¤Ë¤ªÃΤ餻¤¤¤¿¤·¤Þ¤¹¡£
 
-----------------------    £Æ£Ï¡Ý£²£°¡ÊJAS-£±£â¡ËÆ»Í×ÁÇ   -------------------------
 ¡¡£µ¡Ë
 ¡¡¢£ µ°Æ»Í×ÁÇ£± ¡§½Ðŵ¤Ï£Æ£Ï-£²£¹¡Ö¤Õ¤¸£³¹æ¡×¤ËƱ¤¸¡¥
  
 ¡¡ FO-20
¡¡¡¡1 20480U 90013C   00111.84339488  .00000039  00000-0  15887-3 0  2208
¡¡¡¡2 20480  99.0424 253.0048 0540378 185.0650 174.4846 12.83270785477924
 ¡¡¢£ µ°Æ»Í×ÁÇ£² ¡§½Ðŵ¤Ï£Æ£Ï¡Ý£²£¹¡Ö¤Õ¤¸£³¹æ¡×¤ËƱ¤¸¡¥
               
 ¡¡¡¡Satellite: FO-20
¡¡¡¡Catalog number: 20480
¡¡¡¡Epoch time:      00111.84339488
¡¡¡¡Element set:     220
¡¡¡¡Inclination:       99.0424 deg
¡¡¡¡RA of node:       253.0048 deg
¡¡¡¡Eccentricity:    0.0540378
¡¡¡¡Arg of perigee:   185.0650 deg
¡¡¡¡Mean anomaly:     174.4846 deg
¡¡¡¡Mean motion:   12.83270785 rev/day
¡¡¡¡Decay rate:        3.9e-07 rev/day^2
¡¡¡¡Epoch rev:           47792
¡¡¡¡Checksum:              301
¡¡--------------------------------------------------------------------------------
¡¡£¶¡Ë[jamsat¡¾bb¡§5255]¤ËJO2XLO¶É¤ÎÍî¹ç Âî»Ë»á¤¬JARLµ»½Ñ²Ý¤Î¸«²ò¤òÅê¹Æ¤µ¤ì¤Æ¤¤¤Þ¤·¤¿¤Î¤Ç
¡¡¡¡¡¡Å¾ºÜ¤µ¤»¤ÆÄº¤¤Þ¤·¤¿.
¡¡FO-20¤Î¸½¶·¤Ë¤Ä¤¤¤Æ´ÉÀ©¶É¤«¤éµ®½Å¤Ê¸«²ò¤òĺÂפ·¤Þ¤·¤¿¤Î¤Ç¡¤Å¾ºÜ¤µ¤»¤Æ¤¤¤¿¤À
¤¤Þ¤¹¡¥
----- Original Message -----
Á÷¿®¼Ô : JARL LAB2 <lab2@jarl.or.jp>
°¸Àè : <jo2oxl@jarl.com>
Á÷¿®Æü»þ : 2000ǯ4·î24Æü 10:34
·ï̾ : FO-20¤Î·ï
> ¡¡FO-20¤Ç¤¹¤¬£±£¹£¹£¸Ç¯½©¤ËCW¥Æ¥ì¥á¥È¥ê¤Ë°Û¾ï¤¬È¯À¸¤·¤Þ¤·¤¿¡£Åö»þ¤Ï
> °Û¾ïưºî¤ÈÀµ¾ïưºî¤ò·«¤êÊÖ¤·¤Æ¤¤¤Þ¤·¤¿¤¬ÈÕ½©¤Ë¤Ï°Û¾ï¥â¡¼¥É¤«¤éÉüµì
> ¤·¤Ê¤¯¤Ê¤ê¤Þ¤·¤¿¡£¥ê¥»¥Ã¥È¤È¤â·«¤êÊÖ¤·¤Þ¤·¤¿¤¬²óÉü¤¹¤ë¤³¤È¤Ê¤¯¸½ºß¤Ë»ê¤Ã
> ¤Æ¤¤¤Þ¤¹¡£
> ¡¡¸¶°øÅù¤Î¸¡¾Ú¤ò¹Ô¤¤¤Þ¤·¤¿¤¬CW¥Æ¥ì¥á¥È¥êÁ÷½ÐÍѤΥ¡¼¥ä¤Ë»ÈÍѤ·¤Æ¤¤
> ¤ë¥È¥é¥ó¥¸¥¹¥¿¡¼¤Î²ÄǽÀ¤¬¹â¤¤¤³¤È¤¬¹Í¤¨¤ì¤Æ¤¤¤Þ¤¹¡£
>
> ¡¡£ÆO¡Ý£²£°¤ÏÂǤÁ¾å¤²¤«¤é£±£°Ç¯°Ê¾å¤¬·Ð²á¤·¡¢Æó¼¡ÅÅÃӤ⤫¤Ê¤êÎô²½¤¬
> ¿Ê¤ó¤Ç¤¤¤Þ¤¹¡£¥Æ¥ì¥á¥È¥ê¤Ë¤è¤ê±ÒÀ±¤Î¸½¾õ¤¬³Îǧ¤Ç¤¤Ê¤¤¤¿¤á²¿¤È¤â¸À
> ¤¨¤Þ¤»¤ó¤¬Ëö´üŪ¤Ê¸½¾õ¤ÈȽÃǤ·¤Æ¤¤¤Þ¤¹¡£¾¦ÍѤαÒÀ±¤Ê¤é´û¤Ë±¿ÍѤò
> ½ªÎ»¤¹¤ë¤È¤³¤í¤Ç¤¹¤¬¡¢»È¤¨¤ë¤È¤³¤Þ¤Ç»È¤¤¤¿¤¤¤È¹Í¤¨¤Æ¤¤¤Þ¤¹¡£
>
> ¡¡¡¡¡¡¡¡¡¡¡¡¡¡¡¡¡¡¡¡¡¡¡¡¡¡¡¡¡¡¡¡¡¡¡¡¡¡¡¡¡¡¡¡¡¡¡¡¡¡¡¡¡¡¡¡¡¡¡¡¡¡JARLµ»½Ñ²Ý
/EX
------------------------------------------------
Ochiai Takushi(Íî¹ç Âî»Ë) <jo2oxl@jarl.com>
QTH:ÀŲ¬¸©½ÙÅì·´À¶¿åÄ®
JCG#18009
GL#PM95KC
Packet:JO2OXL@JF2ZOH.18.JNET2.JPN.AS
tel & fax +81-559-31-6640
de JO2OXL _.. .  .___ ___ ..___ ___ _.._ ._..
73 TU VA __... ...__  _ .._  ..._._
--------------------------------------------------------------------------------
¡¡        ¢£ ¤Õ¤¸£²¹æ¡¿£Æ£Ï¡Ý£²£°/JAS-1£â ¢£  ¡¡   
            
¡¡¡¡¡¡¡¡¡¡¡¡¡¡¡¡¡¡¡¡¡Ö¤Õ¤¸£²¹æ¡×¡¡¸½¶·                                                                                  
             
